HST 1 20580U 90037B 24349.79952594 .00008297 00000-0 34685-3 0 9991 2 20580 28.4668 211.6744 0001802 213.0977 146.9504 15.21765358704537 ISS (ZARYA) 1 25544U 98067A 24350.38414332 .00015906 00000-0 27987-3 0 9999 2 25544 51.6382 137.6473 0007546 345.6420 53.1763 15.50608004486657 CXO 1 25867U 99040B 24347.67995738 .00000403 00000-0 00000-0 0 9991 2 25867 45.2638 139.9696 8693340 305.0901 0.0820 0.37810292 15235